TimeAKST,TemperatureF,Dew PointF,Humidity,Sea Level PressureIn,VisibilityMPH,Wind Direction,Wind SpeedMPH,Gust SpeedMPH,PrecipitationIn,Events,Conditions,WindDirDegrees,DateUTC
12:53 AM,36.0,34.0,93,30.28,10.0,SE,4.6,-,N/A,,Overcast,130,2013-01-19 09:53:00
1:53 AM,36.0,33.1,89,30.30,10.0,Calm,Calm,-,N/A,,Overcast,0,2013-01-19 10:53:00
3:53 AM,36.0,34.0,93,30.29,10.0,Calm,Calm,-,N/A,,Overcast,0,2013-01-19 12:53:00
4:53 AM,37.0,34.0,89,30.29,10.0,Calm,Calm,-,N/A,,Overcast,0,2013-01-19 13:53:00
5:21 AM,37.4,35.6,93,30.28,10.0,Calm,Calm,-,N/A,,Overcast,0,2013-01-19 14:21:00
5:53 AM,36.0,35.1,97,30.28,10.0,Calm,Calm,-,N/A,,Overcast,0,2013-01-19 14:53:00
6:15 AM,37.4,35.6,93,30.28,8.0,South,3.5,-,N/A,,Overcast,180,2013-01-19 15:15:00
6:53 AM,37.0,36.0,96,30.29,8.0,Calm,Calm,-,N/A,,Overcast,0,2013-01-19 15:53:00
7:00 AM,37.4,35.6,93,30.27,6.0,Calm,Calm,-,N/A,,Overcast,0,2013-01-19 16:00:00
7:53 AM,37.0,36.0,96,30.30,6.0,Calm,Calm,-,N/A,,Overcast,0,2013-01-19 16:53:00
8:53 AM,37.0,37.0,100,30.30,6.0,SE,3.5,-,N/A,,Overcast,140,2013-01-19 17:53:00
9:53 AM,37.9,37.0,97,30.30,6.0,ESE,3.5,-,N/A,,Overcast,110,2013-01-19 18:53:00
10:53 AM,39.0,37.9,96,30.30,10.0,SE,4.6,-,N/A,,Overcast,140,2013-01-19 19:53:00
11:53 AM,39.9,39.0,97,30.30,9.0,ESE,5.8,-,N/A,,Overcast,120,2013-01-19 20:53:00
12:53 PM,41.0,39.0,93,30.32,10.0,Calm,Calm,-,N/A,,Overcast,0,2013-01-19 21:53:00
1:53 PM,39.9,39.0,97,30.30,6.0,SE,4.6,-,N/A,,Overcast,130,2013-01-19 22:53:00
2:53 PM,41.0,39.9,96,30.30,10.0,SE,3.5,-,0.01,,Overcast,130,2013-01-19 23:53:00
3:53 PM,41.0,39.9,96,30.30,10.0,Calm,Calm,-,N/A,,Overcast,0,2013-01-20 00:53:00
4:53 PM,41.0,39.9,96,30.29,10.0,Calm,Calm,-,N/A,,Overcast,0,2013-01-20 01:53:00
5:53 PM,41.0,39.0,93,30.27,10.0,Calm,Calm,-,N/A,,Mostly Cloudy,0,2013-01-20 02:53:00
6:53 PM,39.9,39.0,97,30.28,10.0,Calm,Calm,-,N/A,,Mostly Cloudy,0,2013-01-20 03:53:00
7:53 PM,41.0,39.0,93,30.29,10.0,Calm,Calm,-,N/A,,Mostly Cloudy,0,2013-01-20 04:53:00
8:53 PM,39.9,37.9,93,30.28,10.0,SE,3.5,-,N/A,,Clear,140,2013-01-20 05:53:00
9:53 PM,39.0,37.9,96,30.30,10.0,Calm,Calm,-,N/A,,Clear,0,2013-01-20 06:53:00
10:53 PM,37.9,37.0,97,30.29,10.0,Calm,Calm,-,N/A,,Clear,0,2013-01-20 07:53:00
11:53 PM,37.9,37.0,97,30.31,10.0,SE,3.5,-,N/A,,Partly Cloudy,140,2013-01-20 08:53:00